Weather Service Report


213 
ASUS43 KIND 210509
RWRIN 

WEATHER ROUNDUP FOR INDIANA
NATIONAL WEATHER SERVICE INDIANAPOLIS IN
1200 AM EST SUN DEC 21 2014

NOTE: "FAIR" INDICATES FEW OR NO CLOUDS BELOW 12,000 FEET WITH NO
SIGNIFICANT WEATHER AND/OR OBSTRUCTIONS TO VISIBILITY.

* - STATION DOES NOT REPORT WEATHER SUCH AS PRECIPITATION OR FOG.

+ - STATION NOT QUALITY CONTROLLED BY THE NATIONAL WEATHER SERVICE.
    USE DATA WITH CAUTION...ESPECIALLY DEWPOINT AND RELATIVE
    HUMIDITY OBSERVATIONS.

INZ001>003-010>013-019-020-210600-
NORTHWEST INDIANA
  
CITY           SKY/WX    TMP DP  RH WIND       PRES   REMARKS
GARY /AIRPORT/ CLOUDY    34  24  68 S3        30.27S                  
KNOX *+        CLOUDY    31  25  78 S3        30.27S                  
LA PORTE +     CLOUDY    32  29  89 S3        30.27F FOG              
MICHIGAN CITY+ CLOUDY    32  23  69 S3        30.27F                  
MONTICELLO +   CLOUDY    31  27  86 CALM      30.27S                  
RENSSELAER +   CLOUDY    32  32 100 S5        30.28S WCI  27          
VALPARAISO     CLOUDY    30  26  85 S3        30.27S                  

$$

LMZ046-743>745-210600-
SOUTHERN LAKE MICHIGAN
  
STATION/POSITION TIME  TEMP WIND        PRES
                       AIR  DIR/SP/G
                 (UTC) (F)  (DEG/KT/KT) (MB)

$$

INZ004-005-014>016-021>024-210600-
NORTH CENTRAL INDIANA
  
CITY           SKY/WX    TMP DP  RH WIND       PRES   REMARKS
GOSHEN         CLOUDY    31  27  85 SW5       30.27S FOG     WCI  26  
LOGANSPORT +   CLOUDY    30  28  93 S3        30.29S FOG              
PERU/GRISSOM   CLOUDY    30  30 100 SE2       30.28S                  
ROCHESTER +    CLOUDY    32  30  93 CALM      30.28F                  
SOUTH BEND     CLOUDY    31  26  82 SW5       30.27F WCI  26          
WARSAW +       CLOUDY    30  28  93 SW3       30.28S                  

$$

INZ006>009-017-018-025>027-210600-
NORTHEAST INDIANA
  
CITY           SKY/WX    TMP DP  RH WIND       PRES   REMARKS
ANGOLA *+      CLOUDY    28  27  93 CALM      30.26S                  
AUBURN +       CLOUDY    30  27  86 CALM      30.28S FOG              
FORT WAYNE     CLOUDY    30  28  92 SW5       30.29S FOG     WCI  25  
HUNTINGTON +   CLOUDY    29  27  91 CALM      30.28S                  

$$

INZ028-029-035-036-043>045-051>053-210600-
WEST CENTRAL INDIANA
  
CITY           SKY/WX    TMP DP  RH WIND       PRES   REMARKS
CRAWFORDSVL +  PTCLDY    25  19  80 SE3       30.28                   
GREENCASTLE +  CLEAR     23  19  86 CALM      30.29S FOG              
LAFAYETTE      CLOUDY    30  26  85 CALM      30.28S                  
TERRE HAUTE    CLEAR     26  22  84 CALM      30.29F                  

$$

INZ030>032-037>040-046>048-054>057-064-065-210600-
CENTRAL INDIANA
  
CITY           SKY/WX    TMP DP  RH WIND       PRES   REMARKS
CP ATTERBURY + CLEAR     27  23  86 MISG      30.31S FOG              
FRANKFORT +    CLOUDY    30  30 100 SE5       30.29S FOG     WCI  25  
GREENWOOD *+   FAIR      25  21  86 CALM      30.29                   
INDIANAPOLIS   CLEAR     25  22  88 CALM      30.28F FOG              
-EAGLE CREEK   CLEAR     23  21  92 CALM      30.29S FOG              
KOKOMO *+      CLOUDY    30  27  86 CALM      30.28S                  
MARION +       CLOUDY    28  27  96 CALM      30.29S FOG              
MT COMFORT *+  CLEAR     27 N/A N/A CALM      30.29S                  
SHELBYVILLE    CLEAR     27  23  85 CALM      30.29S FOG              
ZIONSVILLE +   CLOUDY    25  22  89 CALM      30.29S FOG              

$$

INZ033-034-041-042-049-050-058-059-210600-
EAST CENTRAL INDIANA
  
CITY           SKY/WX    TMP DP  RH WIND       PRES   REMARKS
MUNCIE         CLEAR     24  20  84 CALM      30.29R FOG              

$$

INZ060-061-067>069-081>083-085>088-210600-
SOUTHWEST INDIANA
  
CITY           SKY/WX    TMP DP  RH WIND       PRES   REMARKS
EVANSVILLE     CLEAR     27  23  85 N3        30.30F FOG              
HUNTINGBURG *+ CLEAR     27  21  80 E5        30.30F WCI  21          
WASHINGTON +   CLEAR     28  25  87 CALM      30.30S                  

$$

INZ062-063-066-070>080-084-089>092-210600-
SOUTH CENTRAL AND SOUTHEAST INDIANA
  
CITY           SKY/WX    TMP DP  RH WIND       PRES   REMARKS
BLOOMINGTON    CLEAR     23  21  92 CALM      30.28F                  
NORTH VERNON + CLOUDY    30  30 100 CALM      30.31  FOG              
SEYMOUR +      CLOUDY    32  28  86 CALM      30.31                   

$$


Return to Home page


Western Regional Climate Center, wrcc@dri.edu